THA112 RCTP-ZSQD

Flight info

Callsign THA112
Flight time N/A
Altitude 39000
Route PIANO1A PIANO L3 VIOLA R596 SULEM/K0900S1160 DCT OKATO/K0889S1190 W13 TOGUG/K0896S1160 W13 HSN/K0891S1190 W13 PINOT/K0898S1160 B221 IDVEL IDV81A
Aircraft A346/H-SDE2E3FGHIJ3J4J5M1RWXY/LB1D1

Departure

Time N/A
Airport Taiwan Taoyuan International Airport (RCTP)

Arrival

Time 2026-04-15 07:07
Airport Qingdao Jiaodong International Airport (ZSQD)
Time Latitude Longitude Altitude Speed Heading
2026-04-15 06:50 35.76758 120.39419 18483 ft 397 kts 335°
2026-04-15 06:50 35.79316 120.38167 17897 ft 394 kts 335°
2026-04-15 06:51 35.81858 120.36921 17316 ft 392 kts 335°
2026-04-15 06:51 35.84384 120.35682 16745 ft 390 kts 336°
2026-04-15 06:51 35.86897 120.34449 16156 ft 387 kts 336°
2026-04-15 06:51 35.89388 120.33226 15114 ft 384 kts 336°
2026-04-15 06:52 35.91854 120.32013 14129 ft 378 kts 337°
2026-04-15 06:52 35.94255 120.30832 13624 ft 365 kts 337°
2026-04-15 06:52 35.96635 120.29809 13156 ft 360 kts 343°
2026-04-15 06:52 35.99057 120.29092 12696 ft 356 kts 348°
2026-04-15 06:53 36.01495 120.28669 12240 ft 353 kts 353°
2026-04-15 06:53 36.03935 120.28370 11802 ft 350 kts 354°
2026-04-15 06:53 36.06323 120.28096 11440 ft 350 kts 354°
2026-04-15 06:53 36.08783 120.27815 10950 ft 350 kts 354°
2026-04-15 06:54 36.11171 120.27539 10775 ft 338 kts 354°
2026-04-15 06:54 36.13468 120.27271 10646 ft 325 kts 354°
2026-04-15 06:54 36.15675 120.27012 10528 ft 313 kts 354°
2026-04-15 06:54 36.17800 120.26760 10406 ft 300 kts 354°
2026-04-15 06:55 36.19852 120.26517 10296 ft 289 kts 354°
2026-04-15 06:55 36.21814 120.26284 10201 ft 278 kts 354°
2026-04-15 06:55 36.23712 120.26059 10119 ft 271 kts 354°
2026-04-15 06:55 36.25583 120.25837 10037 ft 269 kts 354°
2026-04-15 06:56 36.27443 120.25605 9786 ft 270 kts 352°
2026-04-15 06:56 36.29290 120.25203 9469 ft 269 kts 347°
2026-04-15 06:56 36.31093 120.24587 9156 ft 269 kts 343°
2026-04-15 06:56 36.32877 120.23897 8856 ft 268 kts 343°
2026-04-15 06:57 36.34656 120.23198 8551 ft 268 kts 343°
2026-04-15 06:57 36.36427 120.22503 8266 ft 266 kts 343°
2026-04-15 06:57 36.38185 120.21813 7985 ft 264 kts 343°
2026-04-15 06:57 36.39934 120.21128 7684 ft 263 kts 343°
2026-04-15 06:58 36.41677 120.20445 7399 ft 262 kts 343°
2026-04-15 06:58 36.43417 120.19763 7113 ft 262 kts 343°
2026-04-15 06:58 36.45128 120.19091 6839 ft 261 kts 343°
2026-04-15 06:58 36.46882 120.18402 6547 ft 260 kts 343°
2026-04-15 06:59 36.48025 120.17953 6360 ft 260 kts 343°
2026-04-15 06:59 36.50302 120.17061 5982 ft 258 kts 343°
2026-04-15 06:59 36.52008 120.16393 5697 ft 256 kts 343°
2026-04-15 06:59 36.53155 120.15944 5510 ft 255 kts 343°
2026-04-15 07:00 36.54844 120.15281 5232 ft 253 kts 343°
2026-04-15 07:00 36.56522 120.14622 4953 ft 253 kts 343°
2026-04-15 07:00 36.58186 120.13967 4767 ft 246 kts 342°
2026-04-15 07:00 36.59771 120.13342 4775 ft 232 kts 342°
2026-04-15 07:01 36.61235 120.12565 4718 ft 230 kts 319°
2026-04-15 07:01 36.62081 120.10904 4665 ft 233 kts 280°
2026-04-15 07:01 36.61982 120.08898 4347 ft 235 kts 253°
2026-04-15 07:01 36.61470 120.06965 4085 ft 234 kts 250°
2026-04-15 07:02 36.60943 120.05048 3810 ft 233 kts 253°
2026-04-15 07:02 36.60445 120.03133 3536 ft 231 kts 253°
2026-04-15 07:02 36.59935 120.01245 3270 ft 230 kts 244°
2026-04-15 07:02 36.58926 119.99773 3020 ft 229 kts 210°
2026-04-15 07:03 36.57409 119.99245 2996 ft 230 kts 177°
2026-04-15 07:03 36.55838 119.99607 3007 ft 230 kts 162°
2026-04-15 07:03 36.54328 120.00264 2997 ft 230 kts 159°
2026-04-15 07:03 36.52831 120.00938 2988 ft 224 kts 160°
2026-04-15 07:04 36.51373 120.01551 2918 ft 221 kts 161°
2026-04-15 07:04 36.49915 120.02134 2676 ft 219 kts 162°
2026-04-15 07:04 36.48480 120.02695 2408 ft 214 kts 162°
2026-04-15 07:04 36.47069 120.03247 2109 ft 212 kts 162°
2026-04-15 07:05 36.45669 120.03796 1802 ft 210 kts 162°
2026-04-15 07:05 36.44286 120.04341 1480 ft 207 kts 162°
2026-04-15 07:05 36.42954 120.04866 1215 ft 193 kts 162°
2026-04-15 07:05 36.41725 120.05350 1011 ft 178 kts 162°
2026-04-15 07:06 36.40585 120.05799 768 ft 165 kts 162°
2026-04-15 07:06 36.39535 120.06238 529 ft 155 kts 163°
2026-04-15 07:06 36.38513 120.06609 325 ft 152 kts 161°
2026-04-15 07:06 36.37522 120.07005 178 ft 151 kts 161°
2026-04-15 07:07 36.36509 120.07406 58 ft 148 kts 162°
2026-04-15 07:07 36.35640 120.07743 46 ft 103 kts 162°
2026-04-15 07:07 36.35289 120.07898 45 ft 33 kts 143°
2026-04-15 07:07 36.35154 120.08059 44 ft 12 kts 117°
2026-04-15 07:08 36.35152 120.08115 44 ft 0 kts 69°
2026-04-15 07:08 36.35218 120.08122 45 ft 20 kts 349°
2026-04-15 07:08 36.35366 120.08068 45 ft 23 kts 341°
2026-04-15 07:08 36.35527 120.08006 45 ft 25 kts 343°
2026-04-15 07:09 36.35703 120.07939 46 ft 27 kts 342°
2026-04-15 07:09 36.35888 120.07861 46 ft 26 kts 342°
2026-04-15 07:09 36.36059 120.07794 46 ft 26 kts 343°